SCOUT G-1 DEB, 29212

Orbit data source: Space-Track

SCOUT G-1 DEB, 29212 is space debris in LEO originally from a launch on Tue, 26 Apr 1988 UTC launched from the Air Force Western Test Range (AFWTR). Debris objects in space refer to the collection of defunct objects orbiting the Earth. Examples of debris include non-operational satellites, rocket bodies, and fragments generated from explosions, collisions, or faulty payload assembly.

Loading next visibility...
Identifier
29212, 1988-033H
Orbit
LEO
Country
Flag of USUS
Related business
Manufacturer
Unknown
Mission
Spacecraft
Bus & Motor
Unknown
Mass
Unknown
Launch date (UTC)
1988-04-26 (38 years ago)
Launch vehicle
Unknown
Launch site
Air Force Western Test Range (AFWTR)
Object type
Payload
Rocket body
Debris
Shape & HBR
Unknown shape, 0.1 m
Radar Cross Section
Small (<0.1 m²)

Expand to show TLE details & history
Last TLE update: 3 weeks ago

TLE from 3 weeks ago
0 SCOUT G-1 DEB
1 29212U 88033H   26154.88398444  .00002146  00000-0  25143-2 0  9994
2 29212  90.2950  11.1012 0154603 150.9678 273.1284 13.63099936195072
Epoch: 2026-06-03T21:12Z
TLE epoch observation values (Epoch: 2026-06-03T21:12:56.255Z)
Latitude
62.41122°
Longitude
159.96895°
Altitude
1,030.762 km
Speed
7.344 km/s
True Right ascension
00h 42m 09s
True Declination
62° 16' 30"
Sunlit
Object was in daylight at epoch
Visualization orbit readout
Latitude
Unknown
Longitude
Unknown
Altitude
Unknown
Speed
Unknown
Apparent Right ascension
Unknown
Apparent Declination
Unknown
Sunlit
N/A
Visualization observer readout
Local Sidereal Time
00:28:32
Azimuth
Unknown
Elevation
Unknown
Doppler factor
Unknown
Orbital elements
Apogee altitude
1,135.878 km
Perigee altitude
907.077 km
Semi-major axis
7,399.614 km
Eccentricity
0.01546
Inclination
90.295°
RAAN
11.1012°
Arg. of periapsis
150.9678°
True anomaly
271.35783°
Mean anomaly
273.1284°
Eccentric anomaly
272.24327°
Mean motion
3.4098 °/min
Orbital period
105.58 mins
BSTAR
0.0025143
Loading maneuver chart data...
Computing Atmospheric mass density...
Loading historical data...
Loading historical data...
Loading historical data...
Loading historical data...
Loading historical data...
Loading historical data...
Loading historical data...

Documentation

Showing up to 5 results
|